Location: Worcester
(42.2731°N, 71.8111°W)
Time: 01:31:03
(UTC-04:00)

Envisat - Visible Passes

Search period start: 23 May 2018 00:00
Search period end: 02 June 2018 00:00
Orbit: 764 x 766 km, 98.2° (Epoch: 22 May)

Date Brightness Start Highest point End Pass type
(mag) Time Alt. Az. Time Alt. Az. Time Alt. Az.
24 May 5.6 21:24:05 10° SW 21:27:16 17° W 21:30:27 10° NW visible
25 May 4.6 20:45:35 10° SSW 20:50:14 36° W 20:54:55 10° NNW visible
27 May 5.4 21:12:13 10° SW 21:16:00 21° W 21:19:48 10° NW visible
29 May 5.8 21:40:09 10° WSW 21:41:53 12° W 21:43:36 10° WNW visible
30 May 5.1 21:00:32 10° SSW 21:04:45 26° W 21:09:00 10° NW visible
01 Jun 5.6 21:27:43 10° SW 21:30:34 15° W 21:33:28 10° NW visible
